DELTA 1 DEB, 40761

Orbit data source: Space-Track

DELTA 1 DEB, 40761 is space debris in SSO originally from a launch on Thu, 29 Jul 1976 UTC launched from the Air Force Western Test Range (AFWTR). Debris objects in space refer to the collection of defunct objects orbiting the Earth. Examples of debris include non-operational satellites, rocket bodies, and fragments generated from explosions, collisions, or faulty payload assembly.

Loading next visibility...
Identifier
40761, 1976-077GE
Orbit
SSO
Country
Flag of USUS
Related business
Manufacturer
Unknown
Mission
Spacecraft
Bus & Motor
Unknown
Mass
Unknown
Launch date (UTC)
1976-07-29 (50 years ago)
Launch vehicle
Unknown
Launch site
Air Force Western Test Range (AFWTR)
Object type
Payload
Rocket body
Debris
Shape & HBR
Unknown shape, 0.1 m
Radar Cross Section
Small (<0.1 m²)

Expand to show TLE details & history
Last TLE update: 11 hours ago

TLE from 11 hours ago
0 DELTA 1 DEB
1 40761U 76077GE  26127.75326466  .00000051  00000-0  96438-3 0  9991
2 40761 102.4975  54.4569 0177843  62.8062 299.0988 12.11108647341234
Epoch: 2026-05-07T18:04Z
TLE epoch observation values (Epoch: 2026-05-07T18:04:42.066Z)
Latitude
0.00001°
Longitude
-82.31326°
Altitude
1,566.67 km
Speed
7.114 km/s
True Right ascension
03h 37m 49s
True Declination
0° 00' 00"
Sunlit
Object was in daylight at epoch
Visualization orbit readout
Latitude
Unknown
Longitude
Unknown
Altitude
Unknown
Speed
Unknown
Apparent Right ascension
Unknown
Apparent Declination
Unknown
Sunlit
N/A
Visualization observer readout
Local Sidereal Time
13:27:17
Azimuth
Unknown
Elevation
Unknown
Doppler factor
Unknown
Orbital elements
Apogee altitude
1,771.55 km
Perigee altitude
1,486.742 km
Semi-major axis
8,007.283 km
Eccentricity
0.01778
Inclination
102.4975°
RAAN
54.4569°
Arg. of periapsis
62.8062°
True anomaly
297.29894°
Mean anomaly
299.0988°
Eccentric anomaly
298.20079°
Mean motion
3.02911 °/min
Orbital period
118.85 mins
BSTAR
0.00096438
Loading maneuver chart data...
Computing Atmospheric mass density...
Loading historical data...
Loading historical data...
Loading historical data...
Loading historical data...
Loading historical data...
Loading historical data...
Loading historical data...

Documentation

Showing up to 5 results
|